Location: Ayer Observatory
(42.2600°N, 71.0700°W)
Time: 04:07:12
(UTC-04:00)

OTV 5 (USA 277) - Visible Passes

Search period start: 16 October 2019 00:00
Search period end: 26 October 2019 00:00
Orbit: 310 x 324 km, 54.5° (Epoch: 08 October)

Date Brightness Start Highest point End Pass type
(mag) Time Alt. Az. Time Alt. Az. Time Alt. Az.
16 Oct ? 06:11:37 10° NNW 06:14:03 27° NNE 06:16:28 10° E visible
17 Oct ? 04:54:19 12° NNE 04:54:19 12° NNE 04:55:09 10° NE visible
17 Oct ? 06:25:57 10° NW 06:28:42 69° NE 06:31:25 10° ESE visible
18 Oct ? 05:08:44 20° NNE 05:08:47 20° NNE 05:10:55 10° ENE visible
19 Oct ? 05:23:15 39° NNE 05:23:31 41° NE 05:26:08 10° ESE visible
20 Oct ? 05:37:54 64° WSW 05:38:05 68° SW 05:40:48 10° SE visible
21 Oct ? 05:52:41 22° SW 05:52:41 22° SW 05:54:45 10° S visible
